When you browse on this site, cookies collect data to enhance your experience and personalize the content and advertising you see.
Visit our Privacy Policy to learn more. By continuing to use the site, you agree to this use of cookies and data.

Meteo pe oră la Dalat

Astăzi, 10 Iulie, Vineri

Timp Temperatura Precipitaţii Vânt Presiune Umiditate
00:00 +17°C° 0 mm 0 m/s 650 mmHg 96%
01:00 +17°C° 0 mm 0 m/s 650 mmHg 96%
02:00 +17°C° 0 mm 0 m/s 650 mmHg 96%
03:00 +17°C° 0 mm 0 m/s 649 mmHg 95%
04:00 +17°C° 0 mm 0 m/s 649 mmHg 95%
05:00 +17°C° 0 mm 0 m/s 650 mmHg 92%
06:00 +18°C° 0 mm 0 m/s 650 mmHg 90%
07:00 +19°C° 0 mm 0 m/s 651 mmHg 87%
08:00 +22°C° 0 mm 0 m/s 652 mmHg 77%
09:00 +26°C° 0 mm 1 m/s 653 mmHg 66%
10:00 +28°C° 0 mm 1 m/s 653 mmHg 55%
11:00 +28°C° 0.4 mm 1 m/s 653 mmHg 62%
12:00 +27°C° 0.4 mm 1 m/s 652 mmHg 69%
13:00 +27°C° 0.4 mm 1 m/s 652 mmHg 76%
14:00 +26°C° 1.6 mm 1 m/s 651 mmHg 80%
15:00 +25°C° 1.6 mm 1 m/s 651 mmHg 85%
16:00 +24°C° 1.6 mm 1 m/s 650 mmHg 89%
17:00 +23°C° 0.8 mm 1 m/s 650 mmHg 92%
18:00 +20°C° 0.8 mm 0 m/s 650 mmHg 94%
19:00 +19°C° 0.8 mm 0 m/s 650 mmHg 97%
20:00 +18°C° 0.6 mm 0 m/s 650 mmHg 97%
21:00 +18°C° 0.6 mm 0 m/s 651 mmHg 97%
22:00 +18°C° 0.6 mm 0 m/s 651 mmHg 97%
23:00 +18°C° 0 mm 0 m/s 651 mmHg 97%

Mâine, 11 Iulie, Sâmbătă

Timp Temperatura Precipitaţii Vânt Presiune Umiditate
00:00 +17°C° 0 mm 0 m/s 650 mmHg 97%
01:00 +17°C° 0 mm 0 m/s 650 mmHg 97%
02:00 +17°C° 0 mm 0 m/s 650 mmHg 97%
03:00 +19°C° 0 mm 1 m/s 649 mmHg 97%
04:00 +19°C° 0 mm 1 m/s 649 mmHg 96%
05:00 +19°C° 0 mm 1 m/s 650 mmHg 95%
06:00 +20°C° 0 mm 1 m/s 650 mmHg 94%
07:00 +21°C° 0 mm 1 m/s 651 mmHg 93%
08:00 +23°C° 0 mm 1 m/s 651 mmHg 82%
09:00 +26°C° 0 mm 1 m/s 652 mmHg 70%
10:00 +26°C° 0 mm 0 m/s 653 mmHg 59%
11:00 +28°C° 0.8 mm 1 m/s 652 mmHg 63%
12:00 +28°C° 0.8 mm 1 m/s 652 mmHg 68%
13:00 +27°C° 0.8 mm 1 m/s 652 mmHg 73%
14:00 +26°C° 2 mm 1 m/s 651 mmHg 79%
15:00 +25°C° 2 mm 1 m/s 650 mmHg 85%
16:00 +24°C° 2 mm 1 m/s 649 mmHg 91%
17:00 +23°C° 1.1 mm 1 m/s 649 mmHg 93%
18:00 +22°C° 1.1 mm 1 m/s 650 mmHg 95%
19:00 +21°C° 1.1 mm 1 m/s 650 mmHg 97%
20:00 +20°C° 0.3 mm 1 m/s 650 mmHg 97%
21:00 +20°C° 0.3 mm 1 m/s 651 mmHg 98%
22:00 +20°C° 0.3 mm 1 m/s 651 mmHg 98%
23:00 +19°C° 0 mm 1 m/s 651 mmHg 98%

Poimâine, 12 Iulie, Duminică

Timp Temperatura Precipitaţii Vânt Presiune Umiditate
00:00 +19°C° 0 mm 1 m/s 650 mmHg 97%
01:00 +19°C° 0 mm 1 m/s 650 mmHg 97%
02:00 +17°C° 0 mm 0 m/s 650 mmHg 96%
03:00 +17°C° 0 mm 0 m/s 650 mmHg 96%
04:00 +16°C° 0 mm 0 m/s 649 mmHg 95%
05:00 +17°C° 0 mm 0 m/s 650 mmHg 93%
06:00 +18°C° 0 mm 0 m/s 651 mmHg 91%
07:00 +19°C° 0 mm 0 m/s 651 mmHg 88%
08:00 +23°C° 0 mm 1 m/s 652 mmHg 78%
09:00 +25°C° 0 mm 1 m/s 652 mmHg 67%
10:00 +27°C° 0 mm 1 m/s 653 mmHg 56%
11:00 +26°C° 0.7 mm 1 m/s 652 mmHg 64%
12:00 +26°C° 0.7 mm 1 m/s 652 mmHg 73%
13:00 +25°C° 0.7 mm 1 m/s 651 mmHg 81%
14:00 +24°C° 1.2 mm 1 m/s 651 mmHg 84%
15:00 +24°C° 1.2 mm 1 m/s 650 mmHg 87%
16:00 +23°C° 1.2 mm 1 m/s 650 mmHg 90%
17:00 +22°C° 0.3 mm 1 m/s 650 mmHg 92%
18:00 +21°C° 0.3 mm 1 m/s 650 mmHg 95%
19:00 +20°C° 0.3 mm 1 m/s 650 mmHg 97%
20:00 +18°C° 0 mm 0 m/s 650 mmHg 98%
21:00 +18°C° 0 mm 0 m/s 651 mmHg 98%
22:00 +17°C° 0 mm 0 m/s 651 mmHg 98%
23:00 +17°C° 0 mm 0 m/s 651 mmHg 97%

13 Iulie, Luni

Timp Temperatura Precipitaţii Vânt Presiune Umiditate
00:00 +17°C° 0 mm 0 m/s 650 mmHg 97%
01:00 +17°C° 0 mm 0 m/s 650 mmHg 96%
02:00 +17°C° 0 mm 0 m/s 650 mmHg 96%
03:00 +17°C° 0 mm 0 m/s 650 mmHg 95%
04:00 +16°C° 0 mm 0 m/s 650 mmHg 95%
05:00 +17°C° 0 mm 0 m/s 650 mmHg 93%
06:00 +18°C° 0 mm 0 m/s 651 mmHg 91%
07:00 +19°C° 0 mm 0 m/s 651 mmHg 89%
08:00 +20°C° 0.6 mm 0 m/s 652 mmHg 87%
09:00 +23°C° 0.6 mm 1 m/s 652 mmHg 85%
10:00 +24°C° 0.6 mm 1 m/s 653 mmHg 84%
11:00 +25°C° 0.7 mm 1 m/s 653 mmHg 78%
12:00 +26°C° 0.7 mm 2 m/s 652 mmHg 72%
13:00 +27°C° 0.7 mm 2 m/s 652 mmHg 66%
14:00 +26°C° 1.1 mm 2 m/s 652 mmHg 73%
15:00 +24°C° 1.1 mm 1 m/s 651 mmHg 81%
16:00 +23°C° 1.1 mm 1 m/s 650 mmHg 89%
17:00 +22°C° 0.3 mm 1 m/s 651 mmHg 92%
18:00 +21°C° 0.3 mm 1 m/s 651 mmHg 94%
19:00 +18°C° 0.3 mm 0 m/s 651 mmHg 97%
20:00 +17°C° 0 mm 0 m/s 651 mmHg 97%
21:00 +17°C° 0 mm 0 m/s 651 mmHg 97%
22:00 +17°C° 0 mm 0 m/s 652 mmHg 97%
23:00 +17°C° 0 mm 0 m/s 652 mmHg 96%

14 Iulie, Marţi

Timp Temperatura Precipitaţii Vânt Presiune Umiditate
00:00 +17°C° 0 mm 0 m/s 651 mmHg 96%
01:00 +17°C° 0 mm 0 m/s 651 mmHg 95%
02:00 +16°C° 0 mm 0 m/s 651 mmHg 95%
03:00 +16°C° 0 mm 0 m/s 650 mmHg 94%
04:00 +18°C° 0 mm 1 m/s 650 mmHg 94%
05:00 +19°C° 0 mm 1 m/s 651 mmHg 91%
06:00 +20°C° 0 mm 1 m/s 651 mmHg 89%
07:00 +19°C° 0 mm 0 m/s 652 mmHg 87%
08:00 +23°C° 0 mm 1 m/s 652 mmHg 75%
09:00 +25°C° 0 mm 1 m/s 653 mmHg 64%
10:00 +27°C° 0 mm 1 m/s 654 mmHg 53%
11:00 +27°C° 0 mm 1 m/s 654 mmHg 53%
12:00 +28°C° 0 mm 2 m/s 653 mmHg 52%
13:00 +28°C° 0 mm 2 m/s 653 mmHg 52%
14:00 +27°C° 0.6 mm 2 m/s 652 mmHg 62%
15:00 +26°C° 0.6 mm 2 m/s 652 mmHg 72%
16:00 +25°C° 0.6 mm 1 m/s 651 mmHg 82%
17:00 +23°C° 0.7 mm 1 m/s 651 mmHg 88%
18:00 +22°C° 0.7 mm 1 m/s 651 mmHg 93%
19:00 +20°C° 0.7 mm 1 m/s 651 mmHg 98%
20:00 +20°C° 0.1 mm 1 m/s 651 mmHg 98%
21:00 +20°C° 0.1 mm 1 m/s 651 mmHg 98%
22:00 +20°C° 0.1 mm 1 m/s 652 mmHg 98%
23:00 +17°C° 0 mm 0 m/s 651 mmHg 98%

15 Iulie, Miercuri

Timp Temperatura Precipitaţii Vânt Presiune Umiditate
00:00 +17°C° 0 mm 0 m/s 651 mmHg 97%
01:00 +17°C° 0 mm 0 m/s 650 mmHg 97%
02:00 +17°C° 0 mm 0 m/s 650 mmHg 95%
03:00 +16°C° 0 mm 0 m/s 650 mmHg 94%
04:00 +16°C° 0 mm 0 m/s 650 mmHg 93%
05:00 +17°C° 0 mm 0 m/s 651 mmHg 91%
06:00 +18°C° 0 mm 0 m/s 651 mmHg 88%
07:00 +19°C° 0 mm 0 m/s 652 mmHg 86%
08:00 +21°C° 0 mm 0 m/s 652 mmHg 75%
09:00 +26°C° 0 mm 1 m/s 653 mmHg 64%
10:00 +28°C° 0 mm 1 m/s 654 mmHg 53%
11:00 +28°C° 0.1 mm 1 m/s 653 mmHg 53%
12:00 +29°C° 0.1 mm 1 m/s 653 mmHg 54%
13:00 +29°C° 0.1 mm 1 m/s 652 mmHg 54%
14:00 +28°C° 0.8 mm 1 m/s 651 mmHg 63%
15:00 +27°C° 0.8 mm 1 m/s 651 mmHg 71%
16:00 +25°C° 0.8 mm 1 m/s 650 mmHg 80%
17:00 +24°C° 0.3 mm 1 m/s 650 mmHg 86%
18:00 +22°C° 0.3 mm 1 m/s 650 mmHg 91%
19:00 +19°C° 0.3 mm 0 m/s 649 mmHg 97%
20:00 +19°C° 0 mm 0 m/s 650 mmHg 97%
21:00 +18°C° 0 mm 0 m/s 650 mmHg 97%
22:00 +18°C° 0 mm 0 m/s 651 mmHg 97%
23:00 +18°C° 0 mm 0 m/s 650 mmHg 97%
Arată mai mult